Find Starlink 3715

NORAD ID: 52127 Int'l Des: 2022-029 Owner: SPXS Country: US Constellation: starlink operational
LEOCIRCULAR

Current View

Loading 3D Globe...

About Starlink 3715

Description loading...

Upcoming Passes

Passes for default location (London). Set your location on the main map for personalized predictions.

Altitude History

Loading altitude history...

Two-Line Element Set

1 52127U 22029AR 26150.95633116 -.00001409 00000-0 -70435-4 0 9999
2 52127 53.1937 59.8018 0001179 100.5780 259.5345 15.08842903233345
Epoch: May 30, 2026 • Age: 13 hours

Current Status

Altitude 539.8 km
Velocity 7.59 km/s
Sub-Earth Point 5.35°N, 157.74°E
Launch Date Mar 19, 2022
Age 4.1 years
Type internet

Technical Details

Classification Payload
Mass 297.00 kg
Dry Mass 275.00 kg
Total Mass 297.00 kg
Length 0.20 m
Diameter 2.80 m
Span 9.00 m
Shape Box + pan
Manufacturer SPXS
Bus Type Starlink
Phase Status In Orbit
Owner/State SPXS/US

Most Searched